Temperature
10 10 10 10 10 10 9 9 9 9 9 9 9 9 9 9 9 9 9 9 9 9 9 9 9 9 9 9 9 9 9 9 9 9 9 9 9 9 9 9 9 9 9
10 10 10 9 9 9 9 9 9 9 9 9 9 8 8 8 8 8 8 8 9 9 9 8 8 8 8 8 8 9 9 9 9 9 9 9 9 9 9 9 9 9 9
9 9 9 9 9 9 9 9 8 8 8 8 8 8 8 8 8 8 8 8 8 8 8 8 8 8 8 8 8 8 8 9 9 9 9 9 9 9 8 8 9 9 8
9 9 9 9 8 8 8 8 8 8 8 8 8 8 8 8 8 7 7 8 8 7 8 8 8 8 8 8 8 8 8 8 8 8 8 8 8 8 8 8 8 8 8
8 8 8 8 8 8 8 7 7 7 7 7 7 7 7 7 7 7 7 7 7 7 7 7 7 7 7 7 7 7 7 7 8 8 8 8 8 8 8 8 8 8 8
8 8 8 8 7 7 7 7 7 7 7 7 7 7 7 7 7 7 7 7 7 7 7 7 7 7 7 7 7 7 7 7 7 7 7 7 7 7 7 7 7 7 7
7 7 7 7 7 7 7 7 6 6 6 6 6 6 6 6 6 6 6 6 6 6 6 6 6 6 6 7 7 6 6 6 6 6 6 6 6 6 6 7 7 6 6
6 6 6 6 6 6 6 6 6 6 5 5 5 5 4 5 5 6 6 6 6 6 6 6 6 6 6 6 6 6 6 6 6 6 6 6 6 6 6 6 6 6 6
6 6 6 6 6 6 6 6 5 5 5 5 5 5 4 5 4 5 5 5 5 5 5 5 5 5 5 5 5 5 5 6 5 5 5 5 5 5 5 5 5 5 5
5 5 5 5 5 5 5 5 5 5 5 4 4 5 5 4 4 4 4 4 5 5 5 5 5 5 5 5 5 5 5 5 5 5 5 5 5 4 4 4 4 4 5
4 4 5 5 5 5 5 5 5 5 4 4 4 4 4 4 4 4 3 4 4 4 4 4 4 4 4 4 4 4 5 4 4 4 4 4 4 4 4 4 4 4 4
4 4 4 4 4 4 4 4 4 4 4 4 4 4 4 4 4 4 3 3 3 4 4 4 4 4 4 4 4 4 4 4 4 4 3 3 3 3 3 3 3 3 3
4 4 4 4 4 4 4 4 4 4 4 3 3 3 3 3 3 3 3 3 3 3 3 3 3 3 3 3 3 3 3 3 3 3 3 3 3 3 3 3 2 2 3
3 3 3 3 3 3 3 3 3 3 3 3 3 3 2 3 3 3 3 2 2 2 2 3 3 3 3 3 3 2 2 3 2 2 2 2 2 2 2 2 2 2 2
3 3 3 3 3 3 3 3 3 3 2 2 2 2 2 2 2 2 2 2 2 2 2 2 2 2 2 2 2 2 2 2 2 2 2 2 2 2 2 2 2 2 2
3 3 2 2 2 2 2 2 2 2 2 2 2 2 2 2 1 1 2 1 1 1 1 1 2 2 2 1 1 1 1 1 1 1 1 1 1 1 1 1 1 1 1
2 2 2 2 2 2 2 1 1 1 1 1 1 1 1 1 1 1 1 1 1 1 1 1 1 1 1 1 1 1 1 1 1 1 1 1 1 1 1 1 0 0 0
1 1 1 1 1 1 1 1 1 1 1 1 1 1 1 1 1 0 0 0 0 0 0 0 0 1 0 0 0 0 0 -0 0 0 0 0 0 -0 -0 -0 -0 -0 -0
0 0 0 0 0 0 0 0 0 0 0 0 0 -0 0 0 0 -0 -0 -0 -0 -0 -0 -0 -0 -0 -0 -0 -0 -1 -1 -1 -1 -1 -1 -1 -1 -1 -1 -1 -1 -1 -1
-0 -0 -0 -0 -0 -0 -0 -0 -0 -1 -0 -0 -0 -0 -0 -0 -0 -0 -1 -1 -1 -1 -1 -1 -1 -1 -1 -1 -1 -1 -1 -1 -1 -1 -1 -1 -1 -1 -2 -2 -1 -1 -1
-1 -1 -1 -1 -1 -1 -1 -1 -1 -1 -1 -1 -1 -1 -1 -1 -1 -1 -1 -1 -1 -1 -2 -2 -2 -2 -2 -2 -2 -2 -2 -2 -2 -2 -2 -2 -2 -2 -2 -2 -2 -2 -2
-2 -2 -2 -2 -2 -2 -2 -2 -2 -2 -2 -1 -1 -1 -1 -1 -1 -1 -2 -2 -2 -2 -2 -2 -2 -2 -2 -2 -2 -2 -2 -2 -3 -2 -2 -2 -2 -2 -2 -2 -2 -2 -3
-2 -2 -2 -2 -2 -2 -2 -2 -2 -2 -2 -2 -2 -2 -2 -2 -2 -2 -2 -2 -2 -3 -3 -3 -3 -3 -2 -2 -2 -3 -3 -3 -2 -2 -3 -3 -3 -3 -3 -3 -3 -3 -3
-3 -3 -3 -3 -3 -3 -3 -3 -3 -3 -3 -3 -3 -2 -2 -2 -2 -3 -3 -3 -3 -3 -3 -3 -3 -3 -3 -3 -3 -3 -3 -3 -3 -3 -3 -4 -3 -3 -3 -3 -3 -4 -4
-3 -3 -3 -3 -3 -3 -3 -3 -3 -4 -4 -3 -3 -3 -3 -3 -3 -3 -3 -4 -4 -4 -3 -4 -4 -4 -4 -4 -4 -4 -4 -4 -4 -4 -4 -4 -4 -4 -4 -4 -4 -4 -4
-4 -4 -4 -4 -4 -4 -4 -4 -4 -4 -4 -4 -4 -4 -4 -3 -4 -4 -4 -4 -4 -4 -4 -4 -4 -4 -4 -4 -4 -4 -4 -4 -5 -5 -4 -5 -5 -5 -5 -5 -5 -5 -5
Wind_Speed
5 5 5 5 6 6 6 6 6 6 6 6 6 6 6 6 6 6 7 9 9 9 9 10 10 9 10 11 11 11 11 11 11 11 11 11 10 10 10 9 10 10 10
5 5 5 4 5 5 6 6 6 6 5 5 5 5 5 5 5 5 5 7 8 9 9 9 9 10 10 10 10 10 10 10 10 11 10 10 10 10 9 9 9 9 9
5 5 5 4 4 6 6 6 6 6 5 5 5 5 5 5 4 5 4 4 6 7 8 8 8 8 8 8 9 8 9 8 9 9 9 9 9 9 9 9 9 9 9
5 5 5 4 5 6 5 5 5 4 4 4 3 3 4 4 4 4 4 4 4 4 6 7 7 8 7 7 7 7 8 8 8 8 8 8 8 9 9 9 9 8 8
5 5 5 5 6 5 5 5 4 4 4 4 3 3 3 3 3 3 3 4 3 3 3 5 7 7 7 6 6 6 6 6 6 6 6 7 7 7 7 8 9 8 7
5 5 5 6 6 5 5 5 5 4 4 4 4 3 2 2 2 2 2 2 3 3 3 3 4 5 6 6 5 5 5 5 5 5 5 6 5 5 6 6 7 7 7
6 5 5 6 6 6 6 7 5 6 4 4 3 2 1 1 1 1 1 1 2 2 2 2 2 3 3 4 4 4 4 4 4 4 4 4 4 4 4 5 5 5 6
5 5 6 6 6 6 7 7 7 4 3 4 3 3 2 2 1 0 0 0 1 1 1 2 2 2 2 3 3 3 3 2 3 3 3 2 2 2 2 3 4 4 5
5 5 7 7 7 7 7 8 8 6 5 4 3 3 3 3 2 1 1 1 1 1 1 2 2 2 2 2 2 3 2 2 1 1 1 1 0 0 1 2 2 3 3
5 5 5 7 7 6 7 7 7 6 7 6 4 2 2 2 3 2 2 2 1 2 2 2 2 2 2 2 2 2 2 2 1 1 1 1 1 0 1 1 1 1 2
5 6 5 6 6 6 7 8 7 7 6 6 5 4 3 3 3 3 3 3 2 2 2 2 3 3 3 4 4 3 3 3 2 3 2 2 2 2 2 1 1 1 2
4 6 6 6 7 6 7 7 7 8 7 7 6 5 5 4 4 4 4 4 4 3 3 3 3 4 4 4 4 4 4 4 4 4 4 3 3 3 3 3 2 2 3
4 5 6 6 6 7 7 7 7 7 8 8 7 6 5 5 4 4 4 3 3 3 3 3 4 4 4 5 5 5 5 6 6 6 6 5 4 4 4 4 4 4 4
5 6 6 6 6 8 8 7 6 7 7 8 8 7 5 5 5 5 4 4 3 3 4 4 3 5 5 5 5 6 6 7 8 8 7 6 5 5 5 5 6 5 5
5 6 6 6 6 7 8 8 7 8 7 7 7 7 6 5 5 5 5 5 5 5 6 5 4 4 6 6 6 7 7 7 8 8 8 7 6 6 6 6 7 7 7
5 5 6 6 6 7 7 8 7 8 8 8 7 8 7 6 5 5 5 6 6 6 6 4 4 4 5 6 7 7 7 8 9 9 9 8 8 7 7 8 8 8 8
5 5 6 6 7 7 7 8 8 8 9 9 8 9 9 8 6 6 6 6 6 6 7 4 4 4 6 6 6 7 7 8 8 9 9 9 9 9 9 9 9 9 9
4 5 6 6 7 7 7 9 9 9 10 10 10 9 9 8 8 7 6 7 7 7 6 6 4 4 5 6 6 6 6 7 7 8 9 10 10 10 10 10 10 10 10
4 5 5 6 6 6 7 8 8 9 10 10 10 10 10 9 9 8 8 7 6 6 5 5 4 4 4 4 5 5 5 6 7 7 9 10 10 10 10 11 10 10 10
4 4 5 5 6 6 6 7 7 8 8 9 9 10 10 10 11 10 8 8 7 6 6 5 4 4 4 4 4 5 5 5 5 6 8 8 9 10 10 11 11 10 10
4 4 5 5 5 5 5 6 7 7 8 8 8 9 10 11 12 10 8 8 8 7 6 6 5 5 4 4 5 5 5 5 5 5 5 6 7 7 8 9 10 10 11
4 4 5 5 5 5 7 8 7 7 8 8 8 8 8 10 11 13 13 12 11 9 8 7 7 7 7 6 5 5 5 5 5 4 5 5 6 6 6 7 8 10 11
4 4 5 5 6 6 7 8 8 7 8 8 8 8 7 7 9 9 10 11 11 12 11 9 9 9 8 7 7 7 7 7 6 4 5 6 5 6 6 8 8 10 10
4 4 4 5 5 6 7 8 8 7 7 8 8 9 8 8 8 8 7 8 9 9 10 10 9 9 8 7 8 7 7 6 4 3 5 5 5 5 6 7 9 10 10
4 4 4 5 5 5 6 6 7 5 6 7 7 8 8 8 9 9 8 8 8 8 8 10 10 9 9 9 8 5 5 5 5 4 4 4 3 4 4 5 8 10 11
4 4 4 4 5 5 5 6 6 5 5 6 6 7 9 9 10 10 9 8 9 8 6 6 7 7 7 8 10 8 7 7 5 4 4 4 3 2 3 3 5 6 8
Wind_Direction
142 135 129 130 131 128 128 120 115 110 104 99 99 101 99 94 92 92 87 78 84 91 94 96 97 99 97 94 90 86 82 83 81 79 74 71 68 67 70 70 70 69 73
144 140 133 131 129 129 126 124 123 115 106 103 101 100 98 94 86 89 94 87 80 81 88 94 98 97 96 94 93 91 87 84 83 79 74 70 67 67 68 69 71 68 69
149 147 140 136 130 129 127 123 120 113 108 108 105 99 94 92 92 85 85 87 89 82 81 85 92 96 98 98 97 96 92 85 85 82 76 71 68 65 65 66 70 67 66
151 149 146 141 141 137 135 135 133 123 120 119 111 98 93 89 84 83 82 82 81 83 86 86 82 81 87 96 100 99 94 89 88 84 80 75 69 67 64 62 62 64 63
148 153 150 147 149 144 140 140 140 137 133 124 112 98 89 90 84 88 87 80 76 78 85 92 90 81 77 82 96 103 97 93 90 86 82 79 72 67 63 59 56 56 58
156 156 152 154 154 151 150 150 144 138 137 131 116 94 76 77 84 89 91 88 85 84 94 102 104 98 86 76 85 98 98 100 94 87 86 83 76 69 64 58 53 47 43
167 161 162 162 166 166 163 157 147 144 142 144 138 118 83 79 93 82 99 110 94 89 106 119 116 117 114 97 81 88 96 103 99 94 92 87 77 70 64 60 51 43 37
175 175 176 172 174 170 165 164 159 155 159 172 170 164 175 191 200 283 124 144 162 122 111 122 131 133 138 132 107 91 92 98 103 104 95 94 83 72 58 57 45 33 30
178 188 188 179 179 178 176 175 176 173 175 185 195 189 189 201 182 193 227 227 225 208 187 156 150 155 161 154 146 119 104 101 111 121 122 110 104 280 39 41 28 18 19
190 191 194 189 184 181 182 181 181 182 181 186 196 213 230 173 186 186 204 223 242 248 237 204 190 185 184 178 168 147 139 145 179 228 214 197 193 233 296 338 340 346 358
197 193 193 192 187 187 188 188 186 187 191 195 193 190 191 190 209 206 212 216 228 246 251 237 215 203 199 197 194 187 179 184 206 230 230 233 240 243 253 272 308 326 333
201 200 198 197 194 192 194 195 193 195 198 199 198 197 197 195 198 204 215 218 228 245 252 249 229 213 206 207 208 200 201 207 216 228 238 243 252 257 252 256 268 288 301
214 211 204 206 204 198 198 198 199 201 202 202 202 203 207 215 203 208 209 213 238 256 238 241 234 221 212 210 212 211 216 219 223 229 238 243 249 261 259 258 266 275 284
215 212 207 208 215 204 200 201 205 209 207 209 210 209 208 208 207 202 202 203 223 241 238 238 234 225 217 216 221 222 225 224 226 230 235 240 244 255 261 263 264 268 276
215 210 205 205 213 211 204 202 208 210 212 214 214 212 214 211 210 209 209 209 216 229 237 232 224 222 221 222 222 226 231 229 230 230 233 234 236 244 254 260 264 267 271
211 209 207 208 209 214 208 208 210 210 213 216 216 215 217 215 213 212 211 222 230 233 240 231 232 224 218 225 223 226 232 231 232 233 232 231 234 239 245 252 257 264 268
207 209 209 212 212 216 214 213 215 211 214 217 217 217 218 215 214 213 213 221 228 229 237 244 237 224 222 230 222 224 228 228 231 233 231 231 235 238 241 246 251 257 264
214 212 213 216 218 218 219 218 219 217 217 217 217 217 219 215 218 215 215 219 223 223 228 234 236 229 229 231 228 225 228 230 232 233 232 237 238 238 239 243 249 256 261
228 219 215 216 219 220 224 221 220 219 219 220 217 217 217 216 218 216 217 219 219 218 221 224 230 231 232 225 231 230 229 231 235 235 234 237 240 239 240 244 249 255 259
235 226 228 226 225 222 225 225 222 220 221 222 221 220 219 218 217 216 215 215 213 212 213 214 218 221 223 219 223 226 231 231 232 235 239 240 241 238 241 244 248 253 258
239 230 231 234 229 225 223 224 226 222 221 223 225 224 223 222 219 216 213 209 206 211 213 216 218 219 219 212 222 222 232 239 236 230 239 236 238 240 242 245 247 249 254
241 230 228 231 231 232 234 230 228 224 223 223 226 228 228 223 221 221 219 216 212 212 213 217 223 221 223 225 226 223 226 233 243 222 235 242 238 242 243 244 250 251 254
246 240 233 231 234 241 239 234 234 227 226 225 225 224 223 222 223 221 219 218 219 220 221 224 228 228 227 223 224 226 224 229 242 231 233 243 238 245 245 248 251 253 255
247 245 238 236 240 248 245 239 238 234 234 229 225 222 221 221 219 218 216 217 220 221 223 227 231 234 234 229 226 230 233 238 260 240 223 245 245 251 252 248 249 251 253
254 253 246 239 243 251 244 242 235 236 235 235 230 225 221 222 217 215 215 218 223 228 225 226 232 235 231 227 222 222 225 226 246 242 230 245 258 266 264 250 246 247 251
252 256 254 246 246 251 242 243 241 236 236 235 232 227 223 224 220 215 214 215 222 224 219 222 226 227 225 221 219 221 224 226 240 243 222 226 249 258 266 257 249 249 252
Height
1546 1547 1549 1550 1551 1552 1553 1554 1555 1556 1557 1558 1559 1560 1561 1561 1562 1563 1563 1564 1565 1565 1565 1565 1566 1566 1566 1566 1567 1567 1568 1568 1568 1569 1569 1569 1569 1569 1569 1569 1569 1569 1569
1544 1545 1547 1548 1549 1550 1552 1553 1554 1555 1556 1557 1558 1559 1560 1561 1562 1562 1563 1564 1564 1565 1565 1565 1566 1566 1566 1566 1567 1567 1568 1568 1568 1568 1569 1569 1569 1569 1569 1569 1569 1569 1569
1542 1543 1545 1546 1547 1549 1550 1551 1553 1554 1555 1556 1557 1558 1559 1560 1561 1562 1563 1564 1564 1564 1565 1565 1566 1566 1566 1566 1567 1567 1567 1568 1568 1568 1568 1569 1569 1569 1569 1569 1569 1569 1568
1539 1541 1542 1544 1545 1547 1548 1549 1551 1552 1554 1555 1556 1557 1558 1559 1560 1561 1562 1563 1563 1564 1565 1565 1565 1566 1566 1566 1567 1567 1567 1567 1567 1567 1568 1568 1568 1568 1568 1568 1568 1568 1568
1536 1538 1540 1541 1543 1544 1546 1547 1549 1550 1552 1553 1554 1556 1557 1558 1559 1559 1560 1561 1562 1563 1563 1564 1564 1565 1565 1566 1566 1566 1566 1566 1567 1567 1567 1567 1567 1567 1567 1567 1567 1567 1567
1533 1535 1537 1538 1540 1541 1543 1545 1546 1548 1550 1551 1553 1554 1555 1556 1557 1558 1559 1560 1560 1561 1562 1563 1563 1564 1564 1565 1565 1565 1565 1565 1565 1566 1566 1566 1566 1566 1566 1566 1566 1566 1566
1530 1531 1533 1535 1537 1538 1540 1542 1544 1545 1547 1549 1551 1552 1553 1554 1555 1556 1557 1557 1558 1559 1560 1561 1561 1562 1562 1563 1563 1564 1564 1564 1564 1564 1564 1564 1564 1564 1564 1564 1564 1564 1564
1526 1528 1530 1531 1533 1535 1536 1538 1540 1542 1544 1546 1548 1549 1551 1553 1553 1553 1554 1555 1556 1557 1557 1558 1559 1560 1560 1561 1561 1562 1562 1562 1562 1562 1563 1563 1563 1562 1562 1562 1562 1562 1562
1522 1524 1525 1528 1529 1531 1532 1534 1537 1539 1540 1543 1545 1547 1548 1549 1550 1551 1551 1552 1553 1554 1555 1556 1556 1557 1558 1558 1559 1559 1560 1560 1560 1560 1561 1561 1561 1560 1560 1560 1560 1560 1560
1518 1520 1521 1523 1525 1527 1528 1530 1532 1535 1537 1539 1541 1543 1545 1545 1547 1547 1548 1549 1550 1551 1552 1553 1553 1554 1555 1555 1556 1557 1557 1557 1558 1558 1558 1558 1558 1558 1558 1558 1558 1558 1558
1514 1515 1517 1518 1520 1522 1524 1526 1528 1530 1532 1535 1536 1538 1540 1541 1543 1544 1544 1546 1547 1548 1548 1549 1550 1550 1551 1552 1553 1553 1554 1554 1555 1555 1555 1555 1556 1556 1556 1555 1555 1555 1555
1509 1510 1512 1514 1516 1518 1520 1522 1523 1526 1528 1530 1532 1534 1535 1537 1538 1540 1540 1541 1542 1543 1544 1545 1546 1547 1547 1548 1549 1549 1550 1551 1551 1552 1552 1552 1553 1553 1553 1552 1552 1552 1552
1503 1506 1507 1510 1511 1513 1515 1517 1519 1521 1523 1525 1527 1528 1530 1532 1534 1536 1537 1538 1538 1539 1540 1541 1542 1542 1543 1544 1545 1545 1546 1547 1547 1548 1548 1548 1549 1549 1549 1549 1549 1548 1548
1498 1501 1503 1505 1507 1509 1511 1513 1515 1516 1518 1520 1522 1524 1526 1527 1529 1531 1532 1534 1534 1535 1535 1536 1537 1538 1539 1540 1540 1541 1542 1543 1543 1544 1544 1544 1544 1545 1545 1545 1545 1545 1545
1494 1496 1498 1500 1502 1504 1506 1508 1509 1512 1514 1515 1517 1519 1521 1522 1524 1525 1527 1529 1531 1531 1531 1531 1532 1533 1534 1535 1536 1536 1537 1538 1539 1539 1540 1540 1540 1540 1541 1541 1541 1541 1540
1489 1491 1493 1495 1497 1499 1500 1502 1504 1506 1508 1510 1512 1513 1515 1517 1518 1520 1521 1523 1525 1526 1526 1526 1527 1528 1529 1530 1530 1531 1532 1533 1534 1534 1535 1535 1536 1536 1536 1536 1536 1536 1536
1484 1485 1488 1489 1491 1493 1495 1497 1498 1500 1502 1504 1506 1508 1509 1511 1513 1514 1516 1518 1519 1521 1520 1521 1522 1523 1524 1524 1525 1526 1527 1528 1528 1529 1530 1531 1531 1531 1531 1531 1531 1531 1531
1479 1480 1482 1484 1486 1487 1489 1491 1492 1494 1496 1498 1500 1502 1504 1505 1507 1508 1510 1512 1514 1515 1516 1515 1516 1517 1518 1519 1520 1520 1521 1522 1523 1524 1525 1525 1526 1526 1526 1526 1526 1526 1526
1474 1476 1477 1479 1480 1481 1483 1485 1486 1488 1490 1492 1494 1496 1498 1499 1500 1502 1504 1506 1507 1509 1510 1510 1510 1512 1513 1514 1515 1515 1516 1517 1518 1519 1519 1520 1520 1520 1520 1520 1521 1521 1521
1470 1471 1472 1473 1475 1476 1477 1479 1480 1482 1484 1486 1488 1489 1491 1493 1494 1496 1498 1500 1502 1503 1504 1505 1505 1506 1508 1509 1509 1510 1510 1512 1512 1513 1514 1514 1514 1514 1515 1515 1515 1515 1515
1465 1466 1468 1469 1470 1471 1472 1473 1474 1476 1478 1480 1481 1483 1485 1486 1488 1491 1493 1494 1496 1497 1498 1499 1500 1501 1502 1503 1504 1504 1505 1506 1506 1507 1508 1508 1508 1508 1508 1509 1509 1509 1509
1460 1462 1462 1463 1464 1465 1467 1468 1469 1470 1472 1473 1475 1477 1478 1480 1482 1485 1487 1488 1490 1491 1492 1493 1494 1495 1496 1497 1499 1499 1499 1500 1500 1502 1502 1502 1503 1502 1502 1503 1503 1503 1503
1456 1457 1458 1459 1459 1461 1462 1463 1464 1465 1466 1467 1469 1471 1472 1474 1476 1478 1480 1482 1483 1485 1487 1489 1489 1489 1490 1492 1493 1493 1494 1494 1495 1496 1496 1495 1496 1496 1496 1496 1496 1497 1497
1452 1452 1453 1454 1455 1456 1457 1458 1459 1460 1461 1462 1463 1465 1466 1468 1470 1472 1474 1475 1477 1479 1480 1482 1483 1484 1485 1486 1487 1488 1488 1489 1489 1490 1491 1490 1490 1490 1490 1490 1490 1491 1491
1447 1448 1449 1449 1450 1451 1452 1453 1454 1455 1456 1456 1458 1459 1461 1462 1464 1467 1468 1469 1471 1472 1474 1476 1477 1478 1479 1480 1481 1483 1483 1483 1483 1484 1484 1485 1484 1484 1484 1484 1485 1485 1485
1443 1444 1444 1445 1446 1446 1447 1448 1449 1450 1450 1451 1453 1454 1455 1457 1459 1460 1462 1463 1465 1466 1468 1469 1470 1471 1473 1474 1475 1476 1477 1477 1477 1477 1478 1479 1478 1479 1478 1478 1479 1479 1479